Theta_e
358 356 355 355 356 353 352 355 353 351 352 352 351 350 350 350 351 350 349 348 347 347 346 347 347 346 345 345 345 345 343 342 341 341 341 341 343 344 343 344 345 345 344
344 355 354 342 341 339 340 348 348 350 351 352 351 349 350 350 350 350 348 349 349 346 346 348 346 347 346 344 345 344 343 341 341 340 341 341 344 344 343 342 342 342 341
349 345 341 338 335 339 339 338 345 346 348 348 349 350 350 348 350 348 349 349 348 346 347 346 344 346 347 345 345 345 344 342 340 340 341 343 344 344 343 342 341 341 340
349 342 333 335 334 335 341 341 342 340 343 332 345 348 349 348 347 350 349 348 347 346 346 345 345 345 345 345 345 344 344 344 344 343 343 343 343 343 342 340 339 339 338
342 343 342 336 339 336 338 341 340 340 338 333 341 345 348 348 347 349 348 348 345 345 347 346 345 345 345 344 343 344 344 343 344 343 342 342 342 340 341 340 338 337 337
342 342 342 340 340 340 339 338 336 336 336 333 336 343 347 348 347 347 349 349 346 346 346 346 346 346 345 344 343 344 343 343 342 342 342 342 342 342 340 339 335 334 333
345 342 340 340 339 339 339 338 337 337 338 340 338 339 347 347 347 346 347 348 349 348 347 346 345 344 343 343 344 344 345 343 342 341 342 342 342 342 342 339 337 335 334
343 343 339 338 338 336 336 336 337 337 338 342 343 343 345 346 345 346 346 346 349 349 348 347 346 345 344 344 344 343 344 343 343 343 341 339 341 341 341 341 340 338 335
337 340 341 341 340 339 337 336 335 337 338 341 343 343 343 342 343 344 344 344 346 347 347 348 347 345 346 345 344 342 344 343 342 342 339 338 341 340 339 340 338 334 333
334 335 338 340 341 341 340 337 339 339 340 339 343 343 344 342 342 342 340 339 342 344 345 346 345 344 344 343 342 343 343 343 343 342 340 338 338 337 336 339 340 336 333
334 331 330 334 337 338 340 340 340 339 339 339 338 339 341 341 339 336 339 340 342 344 344 342 339 338 339 344 341 341 343 343 342 343 342 340 339 339 337 339 341 340 335
329 333 332 331 332 334 336 337 338 340 340 339 339 340 341 341 341 340 340 340 342 343 344 343 341 338 337 344 344 344 344 344 343 343 342 340 339 339 339 340 341 339 338
327 326 328 333 331 331 332 333 335 337 336 336 336 335 336 336 334 335 336 338 339 340 341 343 344 344 344 344 343 341 342 341 342 341 340 340 341 340 339 339 339 339 337
326 326 326 326 330 330 331 331 331 331 331 330 330 331 332 333 332 331 330 330 330 331 331 332 338 339 340 343 342 341 340 339 339 340 340 341 340 339 339 338 336 336 335
325 325 325 325 324 325 326 330 331 331 332 331 329 329 328 327 325 325 324 324 324 324 326 327 329 332 334 336 338 339 339 336 335 336 338 339 338 337 337 338 336 334 334
324 323 323 324 325 324 322 323 331 330 331 331 330 329 328 327 327 325 324 324 324 324 321 320 322 326 330 332 334 335 336 336 335 334 334 337 337 337 336 336 336 335 334
322 323 322 322 324 324 323 321 329 331 331 330 330 329 328 327 326 323 323 323 322 322 318 317 318 321 325 329 331 333 334 334 334 334 334 335 335 335 335 336 336 336 336
322 321 321 322 322 323 322 323 322 322 327 329 329 329 328 326 324 323 322 322 322 322 321 319 318 319 323 327 329 331 332 333 334 334 334 335 335 334 334 335 336 335 334
321 320 321 323 325 326 326 328 326 323 322 328 329 328 327 325 323 321 321 320 320 321 321 322 323 323 324 326 327 329 330 331 332 334 334 335 335 335 334 334 334 334 332
319 320 320 324 324 325 326 329 330 328 329 328 328 327 325 323 322 321 321 319 319 320 320 320 322 322 325 327 328 330 331 333 333 334 334 334 334 334 335 334 333 331 331
320 319 318 321 322 324 326 327 328 328 329 328 326 324 322 322 319 319 319 319 319 321 321 321 322 322 324 327 328 329 330 331 332 333 333 333 333 332 332 331 331 330 329
321 318 317 317 321 321 326 325 325 325 327 326 325 324 323 321 320 318 318 319 321 320 321 321 320 321 321 322 324 326 328 328 330 331 331 331 331 330 329 329 329 328 327
321 315 314 314 317 318 322 325 324 323 325 325 324 323 320 319 318 319 319 319 320 320 320 320 319 319 322 321 322 322 322 324 326 329 329 328 327 327 327 327 326 325 325
316 314 313 314 315 318 320 320 323 323 323 324 324 322 321 319 319 318 319 319 321 320 319 319 319 318 319 319 321 320 321 323 323 322 322 322 322 322 322 322 322 322 322
317 314 314 313 314 314 319 317 320 323 322 323 323 323 322 321 320 318 318 320 320 320 319 319 319 318 318 317 316 317 319 320 320 322 321 322 323 321 322 322 321 321 322
314 313 313 313 314 315 318 317 317 323 322 322 321 319 321 322 320 319 317 318 319 318 317 316 318 320 319 319 319 317 317 317 318 319 320 320 320 320 319 320 320 320 319
Wind_Speed
28 33 28 24 26 29 30 24 26 27 31 34 34 30 33 32 29 27 27 25 24 23 23 22 21 19 17 16 16 15 16 18 9 8 11 12 11 13 12 13 14 14 15
21 15 14 13 19 14 1 21 15 18 19 22 28 27 32 31 30 28 29 27 25 24 23 21 21 19 19 16 16 16 17 19 19 11 13 13 10 11 10 10 11 13 12
18 23 19 13 12 8 9 10 20 16 19 17 15 22 30 29 30 29 30 28 24 23 23 23 22 20 22 20 20 18 18 17 19 17 13 11 10 12 13 11 11 13 11
32 19 5 19 12 26 20 25 19 19 26 28 22 24 30 30 31 30 30 30 26 24 25 23 22 21 23 23 21 21 20 19 19 18 17 13 11 10 14 15 14 13 13
13 17 21 28 21 27 32 25 25 29 32 40 35 31 27 33 30 30 30 30 28 26 25 26 24 23 21 22 23 23 22 20 19 17 15 10 10 9 16 16 17 14 14
11 10 16 17 19 21 21 26 25 22 24 25 20 24 31 31 26 26 30 30 29 28 27 24 23 24 22 23 24 25 24 23 22 21 17 11 17 16 16 19 17 11 4
5 9 11 11 13 12 16 20 28 23 19 25 28 26 25 26 24 28 26 28 28 30 31 27 26 24 22 21 25 25 26 26 24 21 22 22 19 21 20 21 23 18 13
17 8 1 4 7 9 12 18 18 23 19 15 17 18 18 14 19 23 27 23 21 26 28 30 28 26 24 23 24 27 26 28 26 25 23 21 20 17 20 22 25 25 16
16 14 10 7 9 11 12 14 17 13 9 5 10 15 17 12 14 14 16 22 24 24 23 25 24 23 25 24 26 28 27 29 29 27 23 20 19 17 16 19 19 17 7
11 9 10 12 11 7 5 12 7 8 6 5 4 9 10 8 7 11 16 17 20 22 23 19 16 19 23 24 26 28 29 32 27 26 24 22 21 21 23 23 24 21 10
11 12 12 9 9 11 8 2 3 2 2 3 1 1 8 16 16 15 12 14 17 23 23 21 19 21 20 24 30 30 36 36 29 27 26 23 22 21 22 26 26 26 23
13 10 10 11 9 9 9 9 9 5 4 4 2 6 6 5 10 13 15 16 14 15 21 18 18 23 23 20 29 32 34 35 31 29 29 28 27 26 26 27 27 25 24
16 17 11 5 8 9 9 8 9 10 11 10 7 9 8 8 8 6 6 6 7 12 16 19 21 18 18 21 20 18 19 30 29 25 26 30 33 33 30 27 26 26 24
15 15 16 12 6 6 4 5 6 6 7 8 6 4 4 4 3 6 8 9 10 11 10 10 16 21 24 24 23 23 21 20 26 28 25 32 33 31 32 30 25 27 26
15 16 17 15 14 12 8 7 5 2 1 2 3 3 2 3 5 8 11 13 14 16 20 19 18 17 17 21 23 25 24 23 24 26 27 26 28 28 31 33 29 24 20
16 18 20 22 17 12 13 17 5 6 4 4 3 2 1 2 8 13 15 16 17 16 17 19 19 23 24 23 22 24 26 24 26 24 24 22 24 25 26 27 28 26 24
14 18 21 21 17 13 13 10 6 5 8 8 5 5 5 2 7 12 13 17 17 14 14 19 17 19 21 22 23 23 24 27 28 29 27 26 25 26 28 27 28 27 23
15 17 20 23 18 13 13 12 10 9 7 6 4 7 5 4 10 12 12 13 16 16 16 18 19 19 20 21 21 22 21 21 23 26 25 25 26 28 25 27 28 27 24
15 17 22 19 16 12 16 15 9 12 10 6 5 5 5 7 10 11 13 14 16 16 17 18 21 21 21 22 23 24 24 24 24 26 26 26 26 27 26 27 29 30 27
14 13 18 12 14 15 15 15 13 7 3 3 3 5 5 5 7 8 10 10 13 16 19 20 21 21 21 23 24 23 23 23 23 25 25 26 26 27 27 29 29 27 26
14 13 17 11 8 8 6 8 7 7 5 3 3 3 3 4 4 6 8 10 12 14 17 18 19 18 17 18 22 22 22 23 24 26 25 26 27 25 25 26 27 27 26
13 15 16 15 12 10 4 2 3 3 3 5 4 4 6 7 6 8 7 6 7 10 10 11 15 17 14 12 14 19 22 23 24 24 26 27 28 26 27 28 27 29 30
12 17 16 17 19 19 10 11 8 4 5 8 8 6 5 5 6 6 6 8 5 5 5 7 11 14 17 14 12 10 6 3 12 20 22 21 19 24 26 24 27 27 27
13 16 18 18 21 20 15 15 15 9 8 8 10 9 8 7 8 8 7 6 4 5 5 4 6 8 11 14 15 14 16 15 18 20 20 21 21 21 20 19 18 20 21
19 21 21 19 19 27 22 19 19 15 12 12 10 13 16 15 12 10 10 10 9 9 8 8 7 4 3 6 9 10 10 11 12 12 14 15 17 18 15 15 18 21 21
18 20 20 19 21 23 19 23 16 21 18 15 14 11 15 19 16 14 11 13 14 11 10 9 7 6 4 3 2 4 4 5 7 9 10 10 12 9 10 11 15 17 17
Wind_Direction
239 215 204 202 201 204 206 205 210 213 221 223 227 229 231 225 220 218 221 218 216 225 230 230 231 230 227 226 229 229 227 217 209 234 257 283 239 244 225 226 225 226 226
270 233 187 93 74 62 326 193 196 210 215 226 231 239 229 221 216 215 214 214 216 222 226 232 238 235 232 231 235 243 235 228 226 222 243 264 237 220 211 209 211 217 222
193 139 115 48 358 210 115 195 189 213 212 212 221 248 220 216 213 207 215 216 216 223 229 230 236 236 239 236 230 233 239 236 232 233 239 240 221 205 194 201 212 214 218
148 136 8 270 217 213 183 187 223 233 202 188 230 245 225 218 216 209 217 220 217 223 232 229 236 235 239 239 237 236 234 231 235 233 241 241 215 211 205 198 203 219 217
114 173 195 232 209 194 207 191 206 204 210 199 225 232 233 224 220 213 220 224 222 219 229 234 235 240 244 251 245 240 239 233 229 229 227 222 207 184 206 217 225 229 230
129 160 200 198 188 193 195 200 210 210 231 222 238 245 234 228 225 227 230 226 232 229 230 230 237 241 243 251 254 254 248 235 234 230 226 212 221 221 222 214 211 200 229
136 169 194 212 219 215 214 215 217 217 223 229 233 244 237 232 231 232 236 234 237 237 238 234 239 243 241 245 252 253 249 246 246 245 234 234 230 230 226 217 212 207 214
77 81 136 206 220 214 202 194 199 195 221 223 220 222 223 242 251 242 241 242 247 247 249 243 238 243 245 245 249 251 249 244 245 241 246 251 241 241 232 234 231 223 229
59 61 58 58 245 236 215 209 209 200 213 234 226 214 218 214 244 267 271 262 259 258 257 252 244 256 255 252 253 254 248 245 242 244 248 252 245 236 239 221 211 189 199
44 45 50 44 40 45 197 205 201 172 168 176 202 208 204 216 232 256 257 263 273 263 251 235 240 252 265 262 258 254 251 247 250 240 238 239 238 237 238 236 225 195 197
38 52 49 47 26 25 37 68 182 221 211 141 101 182 205 208 222 258 254 263 257 261 246 248 251 256 269 273 258 253 252 255 253 241 238 238 233 232 228 226 230 225 207
42 29 39 50 53 50 40 41 48 54 19 345 322 273 249 224 255 267 263 262 271 256 258 263 277 273 272 285 257 251 251 249 249 237 233 230 225 223 227 223 225 229 234
38 46 32 23 34 37 37 49 68 81 81 73 61 52 57 93 64 35 13 338 298 269 265 260 256 266 264 261 262 272 246 240 241 230 219 224 230 231 228 227 228 230 233
28 28 31 39 11 343 5 28 51 93 89 87 75 49 12 34 354 335 330 311 304 302 293 278 262 256 254 255 253 257 257 248 241 234 228 230 236 228 225 227 214 220 224
13 10 7 6 6 6 350 294 262 222 170 151 119 93 30 27 2 347 339 327 316 294 284 279 271 259 250 251 251 250 248 251 248 243 237 232 229 219 214 220 211 201 204
360 1 355 352 351 353 355 353 217 232 249 249 254 261 212 325 344 337 326 319 312 305 289 277 275 271 266 264 263 263 253 250 247 249 248 239 228 216 210 205 205 200 203
355 356 352 353 350 332 338 353 330 255 260 246 244 239 246 272 325 328 329 329 324 309 282 280 262 258 258 258 255 251 250 260 262 258 250 240 239 227 211 203 201 203 203
357 358 357 348 341 331 322 316 295 282 288 262 266 263 251 294 326 332 345 348 343 330 308 289 276 263 256 255 254 254 257 255 253 251 246 240 234 230 215 206 199 199 195
357 354 359 3 25 29 13 6 324 287 270 231 256 259 241 302 321 347 348 351 338 328 327 318 307 286 268 262 260 256 254 251 250 244 237 235 231 223 218 208 201 196 185
353 354 2 16 25 17 17 27 36 59 154 222 249 215 236 289 314 330 335 342 337 338 336 326 319 309 290 277 268 260 257 255 250 239 240 240 227 220 219 206 197 187 184
340 347 356 335 349 15 48 43 17 18 355 290 275 239 276 292 299 313 315 325 335 338 341 338 337 329 317 293 281 275 268 261 253 246 242 230 220 211 212 202 180 178 170
324 333 332 338 322 327 309 293 310 319 256 232 227 270 288 284 298 306 295 300 319 339 355 14 17 7 356 333 306 290 276 267 257 244 237 228 222 208 196 184 174 168 167
307 313 318 328 321 300 270 259 260 272 237 236 235 244 271 287 283 297 289 303 296 319 350 12 27 16 14 34 47 47 36 299 252 242 224 199 186 177 171 167 167 163 159
313 318 321 319 327 319 251 256 245 255 260 249 242 256 261 263 259 260 268 284 255 268 291 333 7 22 26 28 42 49 49 64 78 87 90 95 102 108 110 113 123 131 135
309 315 315 314 311 315 272 256 243 236 235 242 240 254 262 261 263 260 251 233 244 259 266 290 298 308 21 44 36 33 40 70 74 86 95 103 110 105 103 107 135 138 134
302 309 307 310 306 323 277 261 259 241 237 235 241 256 265 259 265 272 282 250 242 248 260 281 267 262 266 291 3 7 18 40 76 91 98 107 115 124 139 154 153 145 155